Pittsfield, MA

5:30 AM EST on December 15, 2019 (GMT -0500)
Pittsfield Municipal

Weather History for KPSF - June, 2019

Change the Weather History Date:

Tuesday, June 11, 2019

  Actual Average Record
Temperature  
Mean Temperature 61 °F 62 °F  
Max Temperature 69 °F 73 °F 91 °F (1927)
Min Temperature 53 °F 52 °F 39 °F (1932)
Degree Days  
Heating Degree Days 4 4  
Month to date heating degree days 38 57  
Since 1 June heating degree days 38 57  
Since 1 July heating degree days 6943 7417  
Cooling Degree Days 0 2  
Month to date cooling degree days 1 15  
Year to date cooling degree days 7 28  
Since 1 June cooling degree days 1 15  
Growing Degree Days 11 (Base 50)    
Moisture  
Dew Point 58 °F    
Average Humidity 80    
Maximum Humidity 94    
Minimum Humidity 52    
Precipitation  
Precipitation 0.35 in 0.16 in 2.12 in (2013)
Month to date precipitation 1.55 1.95  
Year to date precipitation 19.27 18.99  
Sea Level Pressure  
Sea Level Pressure 29.85 in    
Wind  
Wind Speed 9 mph ()    
Max Wind Speed 24 mph    
Max Gust Speed 33 mph    
Visibility 7.7 miles    
Events Rain    
T = Trace of Precipitation, MM = Missing Value Source: Averaged Metar Reports

Daily Weather History Graph

Daily Weather History Graph

Search for Another Location

Airport or City:

Astronomy

Jun. 11, 2019 Rise Set
Actual Time 5:15 AM EDT 8:30 PM EDT
Civil Twilight 4:41 AM EDT 9:04 PM EDT
Nautical Twilight 3:56 AM EDT 9:49 PM EDT
Astronomical Twilight 3:02 AM EDT 10:43 PM EDT
Moon 2:18 PM EDT (6/11) 2:07 AM EDT (6/11)
Length of Visible Light 16h 23m
Length of Day
15h 14m
Waxing Gibbous, 66% of the Moon is Illuminated
Jun 11
Waxing Gibbous
Jun 17
Full
Jun 25
Last Quarter
Jul 2
New
Jul 9
First Quarter

Hourly Weather History & Observations

Time (EDT) Temp. Dew Point Humidity Pressure Visibility Wind Dir Wind Speed Gust Speed Precip Events Conditions
12:45 AM 68.0 °F 64.0 °F 87% 29.86 in 9.0 mi SE 10.4 mph 19.6 mph 0.05 in Rain Light Rain
12:54 AM 68.0 °F 64.0 °F 87% 29.78 in 9.0 mi SSE 8.1 mph 19.6 mph 0.06 in Rain Light Rain
1:09 AM 68.0 °F 64.0 °F 87% 29.85 in 7.0 mi Variable 4.6 mph 16.1 mph 0.00 in Rain Light Rain
1:18 AM 66.9 °F 64.0 °F 90% 29.84 in 5.0 mi SE 11.5 mph - 0.01 in Rain Light Rain
1:38 AM 68.0 °F 64.0 °F 87% 29.83 in 4.0 mi SSE 10.4 mph - 0.04 in Rain Rain
1:54 AM 68.0 °F 64.9 °F 90% 29.75 in 6.0 mi SE 9.2 mph - 0.05 in Rain Light Rain
2:13 AM 68.0 °F 64.0 °F 87% 29.81 in 6.0 mi South 10.4 mph 16.1 mph 0.01 in Rain Light Rain
2:27 AM 68.0 °F 64.9 °F 90% 29.80 in 4.0 mi SSE 8.1 mph - 0.04 in Rain Rain
2:42 AM 68.0 °F 64.9 °F 90% 29.80 in 3.0 mi SSE 10.4 mph 21.9 mph 0.11 in Rain Heavy Rain
2:46 AM 68.0 °F 64.9 °F 90% 29.80 in 2.5 mi South 8.1 mph 21.9 mph 0.12 in Rain Rain
2:48 AM 68.0 °F 64.4 °F 88% 29.80 in 3.0 mi SSE 11.5 mph - 0.12 in Rain Rain
2:54 AM 68.0 °F 64.9 °F 90% 29.72 in 6.0 mi SSE 9.2 mph - 0.12 in Rain Light Rain
3:51 AM 68.0 °F 66.2 °F 94% 29.79 in 4.0 mi Calm Calm - 0.07 in Rain Light Rain
3:54 AM 68.0 °F 66.0 °F 93% 29.71 in 5.0 mi Calm Calm - 0.07 in Rain Light Rain
4:09 AM 68.0 °F 64.9 °F 90% 29.78 in 9.0 mi Variable 3.5 mph - 0.00 in   Overcast
4:25 AM 69.1 °F 64.9 °F 87% 29.79 in 10.0 mi SW 4.6 mph - 0.00 in   Overcast
4:46 AM 68.0 °F 66.0 °F 93% 29.79 in 10.0 mi WSW 6.9 mph - 0.00 in   Overcast
4:54 AM 68.0 °F 66.0 °F 93% 29.72 in 3.0 mi WSW 9.2 mph - 0.02 in Rain Light Rain
4:56 AM 68.0 °F 66.0 °F 93% 29.79 in 2.5 mi WSW 9.2 mph - 0.02 in Rain Rain
5:02 AM 68.0 °F 66.0 °F 93% 29.79 in 3.0 mi SW 8.1 mph - 0.02 in Rain Light Rain
5:07 AM 68.0 °F 66.0 °F 93% 29.79 in 8.0 mi SW 6.9 mph - 0.02 in Rain Light Rain
5:54 AM 63.0 °F 60.1 °F 90% 29.77 in 4.0 mi NW 16.1 mph 27.6 mph 0.03 in Rain Light Rain
6:01 AM 61.0 °F 57.9 °F 90% 29.84 in 4.0 mi NW 15.0 mph 24.2 mph 0.00 in Rain Light Rain
6:54 AM 60.1 °F 55.9 °F 86% 29.82 in 10.0 mi NW 8.1 mph - 0.00 in   Overcast
7:07 AM 59.0 °F 55.0 °F 87% 29.87 in 10.0 mi NW 9.2 mph 20.7 mph N/A   Overcast
7:54 AM 57.9 °F 53.1 °F 84% 29.85 in 10.0 mi NW 10.4 mph 21.9 mph N/A   Overcast
8:54 AM 57.0 °F 53.1 °F 87% 29.86 in 10.0 mi WNW 15.0 mph 20.7 mph 0.00 in Rain Light Rain
9:54 AM 57.9 °F 52.0 °F 81% 29.86 in 10.0 mi NW 12.7 mph 25.3 mph 0.00 in   Overcast
10:04 AM 57.9 °F 51.1 °F 78% 29.92 in 10.0 mi NW 12.7 mph 23.0 mph N/A   Overcast
10:54 AM 57.9 °F 50.0 °F 75% 29.88 in 10.0 mi NW 10.4 mph 20.7 mph N/A   Overcast
11:54 AM 59.0 °F 51.1 °F 75% 29.89 in 10.0 mi NW 12.7 mph - N/A   Overcast
12:54 PM 61.0 °F 51.1 °F 70% 29.88 in 10.0 mi NW 10.4 mph 28.8 mph N/A   Overcast
1:02 PM 62.1 °F 51.1 °F 67% 29.93 in 10.0 mi WNW 12.7 mph 21.9 mph N/A   Overcast
1:54 PM 62.1 °F 51.1 °F 67% 29.88 in 10.0 mi West 15.0 mph 24.2 mph N/A   Overcast
2:39 PM 64.9 °F 52.0 °F 63% 29.94 in 10.0 mi NW 16.1 mph 25.3 mph N/A   Overcast
2:54 PM 64.9 °F 51.1 °F 61% 29.88 in 10.0 mi WNW 19.6 mph 27.6 mph N/A   Overcast
3:54 PM 68.0 °F 51.1 °F 55% 29.89 in 10.0 mi NW 16.1 mph 23.0 mph N/A   Mostly Cloudy
4:54 PM 69.1 °F 51.1 °F 53% 29.90 in 10.0 mi NW 12.7 mph 21.9 mph N/A   Mostly Cloudy
5:54 PM 66.9 °F 48.9 °F 52% 29.92 in 10.0 mi WNW 17.3 mph 26.5 mph N/A   Mostly Cloudy
6:54 PM 66.0 °F 48.9 °F 54% 29.95 in 10.0 mi WNW 11.5 mph 23.0 mph N/A   Clear
7:54 PM 63.0 °F 48.0 °F 58% 29.97 in 10.0 mi West 10.4 mph - N/A   Clear
8:54 PM 60.1 °F 46.9 °F 62% 29.99 in 10.0 mi West 9.2 mph - N/A   Clear
9:54 PM 57.9 °F 46.9 °F 67% 30.00 in 10.0 mi West 8.1 mph - N/A   Clear
10:54 PM 55.9 °F 46.9 °F 72% 30.02 in 10.0 mi WNW 9.2 mph - N/A   Clear
11:54 PM 55.0 °F 46.9 °F 74% 30.03 in 10.0 mi WNW 6.9 mph - N/A   Clear